This demonstration page uses our WeatherBlox Daily Observations layout. Learn more.

Left ArrowRight Arrow

38.83388, -104.82136

Hourly Observations for August 13, 2022

Temp ( °F °C ) Dew Point ( °F °C ) Humidity (%) Winds ( mph kmh ) Pressure ( in mb ) Visibility ( mi km ) Precip ( " mm )
12:54 am 00:54 Mostly Clear 64 17.8 47 8.3 54 54 NNE 12 19 30.01 1016 10 16 0.00 0.00
1:54 am 01:54 Mostly Clear 63 17.2 46 7.8 54 54 N 9 15 30.00 1016 10 16 0.00 0.00
2:54 am 02:54 Mostly Clear 63 17.2 47 8.3 56 56 N 8 13 29.99 1016 10 16 0.00 0.00
3:54 am 03:54 Mostly Clear 63 17.2 46 7.8 54 54 NNW 3 6 29.99 1016 10 16 0.00 0.00
4:54 am 04:54 Mostly Clear 68 20 44 6.7 42 42 NNW 18 30 29.98 1015 10 16 0.00 0.00
4:58 am 04:58 Mostly Clear 69 20.6 45 7.2 42 42 NNW 23 37 29.89 1012 10 16 0.00 0.00
5:43 am 05:43 Mostly Clear 66 18.9 54 12.2 65 65 N 26 43 29.92 1013 10 16 0.00 0.00
5:54 am 05:54 Mostly Clear 66 18.9 54 12.2 65 65 N 31 50 29.99 1016 10 16 0.00 0.00
6:54 am 06:54 Mostly Sunny 65 18.3 54 12.2 68 68 NNW 26 43 30.02 1017 10 16 0.00 0.00
7:54 am 07:54 Mostly Sunny 67 19.4 54 12.2 63 63 NNW 28 44 30.04 1017 10 16 0.00 0.00
8:54 am 08:54 Mostly Sunny 73 22.8 55 12.8 53 53 NNW 16 26 30.04 1017 10 16 0.00 0.00
9:54 am 09:54 Mostly Sunny 80 26.7 55 12.8 42 42 N 10 17 30.03 1017 10 16 0.00 0.00
10:54 am 10:54 Mostly Sunny 82 27.8 55 12.8 40 40 W 6 9 30.02 1017 10 16 0.00 0.00
11:54 am 11:54 Mostly Sunny 85 29.4 48 8.9 28 28 VRB 6 9 30.01 1016 10 16 0.00 0.00
12:54 pm 12:54 Mostly Sunny 87 30.6 45 7.2 23 23 SSE 9 15 29.99 1016 10 16 0.00 0.00
1:54 pm 13:54 Mostly Sunny 89 31.7 46 7.8 23 23 VRB 3 6 29.97 1015 10 16 0.00 0.00
2:54 pm 14:54 Partly Cloudy 89 31.7 49 9.4 25 25 SE 13 20 29.95 1014 10 16 0.00 0.00
3:54 pm 15:54 Mostly Sunny 88 31.1 49 9.4 26 26 S 8 13 29.93 1014 10 16 0.00 0.00
4:54 pm 16:54 Mostly Sunny 89 31.7 47 8.3 23 23 SE 15 24 29.90 1013 10 16 0.00 0.00
5:54 pm 17:54 Mostly Sunny 87 30.6 46 7.8 24 24 S 13 20 29.90 1013 10 16 0.00 0.00
6:54 pm 18:54 Mostly Sunny 83 28.3 46 7.8 28 28 ESE 9 15 29.93 1014 10 16 0.00 0.00
7:54 pm 19:54 Partly Cloudy 79 26.1 45 7.2 30 30 ENE 10 17 29.95 1014 10 16 0.00 0.00
8:54 pm 20:54 Mostly Cloudy 76 24.4 51 10.6 42 42 NNW 15 24 29.98 1015 10 16 0.00 0.00
9:54 pm 21:54 Mostly Cloudy 73 22.8 52 11.1 48 48 NW 10 17 29.97 1015 10 16 0.00 0.00
10:54 pm 22:54 Mostly Cloudy 74 23.3 51 10.6 45 45 NNW 9 15 29.96 1015 10 16 0.00 0.00
11:54 pm 23:54 Mostly Cloudy 72 22.2 50 10 46 46 NNW 7 11 29.95 1014 10 16 0.00 0.00

Powered by AerisWeather